Weather History for PHNG - September, 2014

Change the Weather History Date:

Friday, September 12, 2014

  Actual Average (PHNL) Record (PHNL)
Temperature  
Mean Temperature 80 °F 82 °F  
Max Temperature 87 °F 89 °F 93 °F (1965)
Min Temperature 73 °F 75 °F 66 °F (1985)
Degree Days  
Heating Degree Days 0 0  
Month to date heating degree days 0  
Since 1 July heating degree days 0  
Cooling Degree Days 15 17  
Month to date cooling degree days 204  
Year to date cooling degree days 3188  
Growing Degree Days 30 (Base 50)    
Moisture  
Dew Point 71 °F    
Average Humidity 72    
Maximum Humidity 89    
Minimum Humidity 57    
Precipitation  
Precipitation 0.00 in 0.02 in 0.88 in (1947)
Month to date precipitation 0.23  
Year to date precipitation 9.13  
Snow  
Snow 0.00 in - - ()
Month to date snowfall  
Since 1 July snowfall  
Since 1 September snowfall  
Snow Depth -    
Sea Level Pressure  
Sea Level Pressure 29.96 in    
Wind  
Wind Speed 5 mph (ENE)    
Max Wind Speed 9 mph    
Max Gust Speed -    
Visibility 9 miles    
Events      
T = Trace of Precipitation, MM = Missing Value Source: NWS Daily Summary

Daily Weather History Graph

Daily Weather History Graph

Search for Another Location

Airport or City:

Trip Planner

Search our weather history database for the weather conditions in past years. The results will help you decide how hot, cold, wet, or windy it might be!

Date:

Astronomy

Sep. 12, 2014 Rise Set
Actual Time 6:17 AM HST 6:36 PM HST
Civil Twilight 5:55 AM HST 6:59 PM HST
Nautical Twilight 5:29 AM HST 7:25 PM HST
Astronomical Twilight 5:02 AM HST 7:51 PM HST
Moon 9:41 PM HST (9/12) 9:59 AM HST (9/12)
Length of Visible Light 13h 03m
Length of Day
12h 19m
Waning Gibbous, 81% of the Moon is Illuminated
Sep 12
Waning Gibbous
Sep 15
Last Quarter
Sep 23
New
Oct 1
First Quarter
Oct 8
Full

Hourly Weather History & Observations

Time (HST) Temp. Heat Index Dew Point Humidity Pressure Visibility Wind Dir Wind Speed Gust Speed Precip Events Conditions
12:57 AM - - - N/A% 29.98 in 10.0 mi East 4.6 mph - N/A   Scattered Clouds
1:57 AM - - - N/A% 29.97 in 10.0 mi ESE 6.9 mph - N/A   Mostly Cloudy
2:57 AM - - - N/A% 29.96 in 10.0 mi Calm Calm - N/A   Scattered Clouds
3:57 AM - - - N/A% 29.95 in 10.0 mi Calm Calm - N/A   Partly Cloudy
4:57 AM 73.4 °F - 70.0 °F 89% 29.94 in 10.0 mi Calm Calm - N/A   Partly Cloudy
5:57 AM 75.2 °F - 70.0 °F 84% 29.95 in 10.0 mi Calm Calm - N/A   Clear
6:57 AM 77.0 °F - 69.1 °F 76% 29.96 in 10.0 mi Calm Calm - N/A   Scattered Clouds
7:57 AM 75.2 °F - 71.1 °F 87% 29.97 in 10.0 mi East 5.8 mph - N/A   Mostly Cloudy
8:57 AM 77.0 °F - 70.0 °F 79% 29.98 in 9.0 mi Variable 5.8 mph - N/A   Mostly Cloudy
9:57 AM 78.8 °F - 71.1 °F 77% 29.98 in 10.0 mi ESE 6.9 mph - N/A   Mostly Cloudy
10:57 AM 82.4 °F 86.7 °F 71.1 °F 68% 29.97 in 8.0 mi Variable 5.8 mph - N/A   Scattered Clouds
11:06 AM 82.4 °F 87.2 °F 71.6 °F 70% 29.98 in 6.2 mi ENE 8.1 mph - N/A   Mostly Cloudy
11:57 AM 84.2 °F 89.3 °F 71.1 °F 65% 29.95 in 9.0 mi NE 6.9 mph - N/A   Mostly Cloudy
12:57 PM 84.2 °F 89.3 °F 71.1 °F 65% 29.94 in 9.0 mi NE 9.2 mph - N/A   Scattered Clouds
1:57 PM 87.8 °F 93.4 °F 71.1 °F 57% 29.92 in 9.0 mi NE 8.1 mph - N/A   Clear
2:57 PM 87.8 °F 94.3 °F 72.0 °F 59% 29.91 in 10.0 mi NE 8.1 mph - N/A   Partly Cloudy
3:57 PM 87.8 °F 94.3 °F 72.0 °F 59% 29.90 in 8.0 mi NE 9.2 mph - N/A   Partly Cloudy
4:57 PM 86.0 °F 91.5 °F 71.1 °F 61% 29.91 in 10.0 mi NE 9.2 mph - N/A   Clear
5:57 PM 82.4 °F 86.3 °F 70.0 °F 66% 29.92 in 10.0 mi NE 9.2 mph - N/A   Scattered Clouds
6:57 PM 82.4 °F 86.7 °F 71.1 °F 68% 29.93 in 10.0 mi NE 6.9 mph - N/A   Partly Cloudy
7:57 PM 78.8 °F - 70.0 °F 74% 29.96 in 10.0 mi ENE 3.5 mph - N/A   Partly Cloudy
8:57 PM 78.8 °F - 70.0 °F 74% 29.98 in 10.0 mi ENE 3.5 mph - N/A   Scattered Clouds
9:22 PM 78.8 °F - 71.6 °F 78% 29.99 in 6.2 mi ENE 5.8 mph - N/A   Mostly Cloudy
9:30 PM 78.8 °F - 71.6 °F 78% 29.99 in 6.2 mi ENE 5.8 mph - N/A   Mostly Cloudy
9:57 PM 78.8 °F - 71.1 °F 77% 29.98 in 10.0 mi NE 5.8 mph - N/A   Partly Cloudy
10:57 PM 78.8 °F - 69.1 °F 72% 29.98 in 10.0 mi ENE 3.5 mph - N/A   Partly Cloudy
11:44 PM 77.0 °F - 69.8 °F 78% 29.98 in 6.2 mi Calm Calm - N/A   Partly Cloudy
11:57 PM 77.0 °F - 69.1 °F 76% 29.97 in 10.0 mi ENE 3.5 mph - N/A   Partly Cloudy